Weather in Krotovo

Russia / Novosibirsk Oblast     54°46′06″N   79°27′42″E
temp.,
°C
wind,
m/s
gust,
m/s
humid.,
%
clouds,
%
prec.,
mm/h
press.,
hPa
HPBL,
m
5 march, fri
fri501:00−4s81787100 0.0 1010601
04:00−6s81785100 0.0 1008551
07:00−8s71592100 0.1 1007524
10:00−5ssw81493100 0.5 1006748
13:00−6wsw9159294 0.7 1010828
16:00−5sw91583100 0.1 1012860
19:00−4sw111894100 1.3 10131300
22:00−4sw101692100 1.0 10131044
6 march, sat
sat601:00−3sw91691100 1.6 1014918
04:00−4sw91694100 0.4 1013831
07:00−5ssw101790100 1.3 1013809
10:00−6sw101790100 0.2 1011916
13:00−4sw111794100 1.6 10101045
16:00−2sw111693100 0.6 10081028
19:00−2sw91491100 1.1 10081035
22:00−2sw71493100 0.1 1009638
7 march, sun
sun701:00−4wnw61195100 1.8 1010576
04:00−10w4109167 0.1 1012201
07:00−15wsw479233 0.1 101696
10:00−14wsw499167 0.0 1018204
13:00−10sw478979 0.0 1020277
16:00−8sw468815 0.0 1020308
19:00−11s348926 0.0 102041
22:00−11sse41084100 0.0 1019170
8 march, mon
mon801:00−3s71493100 0.0 1016695
04:00−2s81491100 0.0 1012662
07:00−4s71690100 0.1 1010469
10:00−4s81587100 0.0 1007442
13:00−2ssw91584100 0.0 1004646
16:00−2sw101595100 0.5 10041074
19:00−6w81486100 1.6 1008704
22:00−11wsw6149122 0.0 1015406
9 march, tue
tue901:00−14wsw6139455 0.0 1019279
04:00−15sw5109398 0.0 1020261
07:00−16ssw499296 0.0 1022187
10:00−14ssw6129344 0.0 1022329
13:00−11sw6108951 0.0 1022450
16:00−9ssw598984 0.0 1022442
19:00−10s489288 0.0 1020254
22:00−11s51090100 0.0 1018259